VH314 YSWS-YSSY

Flight info

Callsign VH314
Flight time N/A
Altitude 5000
Route DCT HALAS DCT FISHA SSY DCT
Aircraft BG58/L-BG58/C

Departure

Time 2026-05-08 03:10
Airport (Duplicate)Western Sydney International Airport (YSWS)

Arrival

Time N/A
Airport Sydney Kingsford Smith International Airport (YSSY)
Time Latitude Longitude Altitude Speed Heading
2026-05-08 03:01 -33.88187 150.72447 272 ft 0 kts 235°
2026-05-08 03:04 -33.88209 150.72383 270 ft 14 kts 252°
2026-05-08 03:04 -33.88170 150.72305 271 ft 13 kts 330°
2026-05-08 03:04 -33.88062 150.72252 271 ft 0 kts 19°
2026-05-08 03:05 -33.88024 150.72268 271 ft 2 kts 30°
2026-05-08 03:05 -33.88001 150.72404 271 ft 24 kts 62°
2026-05-08 03:05 -33.87881 150.72649 271 ft 44 kts 58°
2026-05-08 03:05 -33.87727 150.72962 272 ft 42 kts 59°
2026-05-08 03:06 -33.87645 150.73123 272 ft 2 kts 10°
2026-05-08 03:06 -33.87598 150.73073 272 ft 11 kts 325°
2026-05-08 03:06 -33.87556 150.73039 273 ft 0 kts 324°
2026-05-08 03:08 -33.87537 150.72969 273 ft 17 kts 253°
2026-05-08 03:08 -33.87586 150.72860 274 ft 13 kts 240°
2026-05-08 03:09 -33.87665 150.72697 273 ft 60 kts 239°
2026-05-08 03:09 -33.88048 150.71937 308 ft 138 kts 238°
2026-05-08 03:09 -33.88584 150.70870 618 ft 159 kts 240°
2026-05-08 03:09 -33.89106 150.69748 797 ft 151 kts 239°
2026-05-08 03:10 -33.89609 150.68699 1173 ft 140 kts 240°
2026-05-08 03:10 -33.90081 150.67722 1566 ft 128 kts 239°
2026-05-08 03:10 -33.90868 150.67243 1726 ft 150 kts 179°
2026-05-08 03:10 -33.91757 150.67973 2030 ft 167 kts 127°
2026-05-08 03:11 -33.92194 150.69297 2259 ft 171 kts 114°
2026-05-08 03:11 -33.92363 150.70705 2482 ft 182 kts 80°
2026-05-08 03:11 -33.91908 150.72148 2752 ft 177 kts 73°
2026-05-08 03:11 -33.91598 150.73569 3019 ft 178 kts 83°
2026-05-08 03:12 -33.91404 150.75083 3164 ft 181 kts 84°
2026-05-08 03:12 -33.91241 150.76608 3278 ft 183 kts 87°
2026-05-08 03:12 -33.91049 150.78144 3335 ft 190 kts 87°
2026-05-08 03:12 -33.90907 150.79737 3326 ft 193 kts 92°
2026-05-08 03:13 -33.90827 150.81346 3296 ft 197 kts 83°
2026-05-08 03:13 -33.90430 150.82966 3284 ft 199 kts 76°
2026-05-08 03:13 -33.90068 150.84551 3333 ft 196 kts 82°
2026-05-08 03:13 -33.89897 150.85611 3382 ft 194 kts 88°
2026-05-08 03:14 -33.89604 150.87728 3518 ft 194 kts 86°
2026-05-08 03:14 -33.89425 150.89340 3558 ft 194 kts 92°
2026-05-08 03:14 -33.89395 150.90948 3638 ft 191 kts 96°
2026-05-08 03:14 -33.89321 150.92542 3767 ft 190 kts 92°
2026-05-08 03:15 -33.89233 150.94111 3876 ft 188 kts 96°
2026-05-08 03:15 -33.89240 150.95175 3887 ft 188 kts 101°
2026-05-08 03:15 -33.89405 150.96731 3871 ft 188 kts 108°
2026-05-08 03:15 -33.89651 150.98270 3888 ft 187 kts 109°
2026-05-08 03:16 -33.89862 150.99810 3948 ft 185 kts 109°
2026-05-08 03:16 -33.90121 151.01313 3987 ft 182 kts 113°